• In India
  • List of Countries
  • For 7 days
  • Water Temperature
  • Satellite Maps
  • Weather Map
  • Weather Widgets
  • user-avatar
    Login

    Hourly Weather Yeghegnadzor

    Today, 21 November, Wednesday

    Time Temperature Precipitation Wind Pressure Humidity
    00:00 +6°C° 0.1 mm 1 mps 651 mmHg 70%
    01:00 +6°C° 0 mm 1 mps 651 mmHg 71%
    02:00 +5°C° 0 mm 1 mps 650 mmHg 72%
    03:00 +4°C° 0 mm 2 mps 650 mmHg 73%
    04:00 +4°C° 0 mm 2 mps 650 mmHg 74%
    05:00 +4°C° 0 mm 2 mps 650 mmHg 75%
    06:00 +4°C° 0 mm 1 mps 650 mmHg 76%
    07:00 +5°C° 0 mm 2 mps 650 mmHg 72%
    08:00 +6°C° 0 mm 2 mps 650 mmHg 68%
    09:00 +7°C° 0 mm 2 mps 650 mmHg 65%
    10:00 +8°C° 0 mm 2 mps 650 mmHg 62%
    11:00 +9°C° 0 mm 3 mps 650 mmHg 59%
    12:00 +10°C° 0 mm 3 mps 650 mmHg 56%
    13:00 +10°C° 0 mm 3 mps 649 mmHg 56%
    14:00 +10°C° 0 mm 2 mps 649 mmHg 57%
    15:00 +10°C° 0 mm 2 mps 649 mmHg 57%
    16:00 +9°C° 0.1 mm 2 mps 649 mmHg 61%
    17:00 +8°C° 0.1 mm 2 mps 649 mmHg 65%
    18:00 +7°C° 0.1 mm 2 mps 649 mmHg 70%
    19:00 +6°C° 0.1 mm 2 mps 649 mmHg 71%
    20:00 +6°C° 0.1 mm 2 mps 649 mmHg 72%
    21:00 +6°C° 0.1 mm 2 mps 649 mmHg 73%
    22:00 +6°C° 0.1 mm 2 mps 649 mmHg 73%
    23:00 +6°C° 0.1 mm 2 mps 649 mmHg 74%

    Tomorrow, 22 November, Thursday

    Time Temperature Precipitation Wind Pressure Humidity
    00:00 +6°C° 0.1 mm 2 mps 649 mmHg 74%
    01:00 +6°C° 0.2 mm 2 mps 649 mmHg 75%
    02:00 +5°C° 0.2 mm 2 mps 649 mmHg 76%
    03:00 +5°C° 0.2 mm 2 mps 648 mmHg 77%
    04:00 +5°C° 0.3 mm 2 mps 648 mmHg 77%
    05:00 +5°C° 0.3 mm 2 mps 648 mmHg 78%
    06:00 +5°C° 0.3 mm 2 mps 648 mmHg 79%
    07:00 +6°C° 0.3 mm 2 mps 648 mmHg 78%
    08:00 +5°C° 0.3 mm 3 mps 649 mmHg 77%
    09:00 +7°C° 0.3 mm 3 mps 649 mmHg 76%
    10:00 +7°C° 0.2 mm 3 mps 649 mmHg 75%
    11:00 +8°C° 0.2 mm 3 mps 648 mmHg 74%
    12:00 +9°C° 0.2 mm 3 mps 648 mmHg 72%
    13:00 +9°C° 0.2 mm 3 mps 648 mmHg 73%
    14:00 +9°C° 0.2 mm 3 mps 648 mmHg 73%
    15:00 +9°C° 0.2 mm 2 mps 647 mmHg 73%
    16:00 +8°C° 0.5 mm 2 mps 648 mmHg 76%
    17:00 +8°C° 0.5 mm 2 mps 648 mmHg 78%
    18:00 +7°C° 0.5 mm 2 mps 648 mmHg 81%
    19:00 +7°C° 0.5 mm 2 mps 648 mmHg 81%
    20:00 +7°C° 0.5 mm 2 mps 648 mmHg 82%
    21:00 +7°C° 0.5 mm 2 mps 648 mmHg 83%
    22:00 +7°C° 0.3 mm 2 mps 648 mmHg 84%
    23:00 +7°C° 0.3 mm 2 mps 649 mmHg 84%

    Day after tomorrow, 23 November, Friday

    Time Temperature Precipitation Wind Pressure Humidity
    00:00 +7°C° 0.3 mm 2 mps 649 mmHg 85%
    01:00 +7°C° 0.2 mm 2 mps 649 mmHg 86%
    02:00 +6°C° 0.2 mm 2 mps 649 mmHg 86%
    03:00 +6°C° 0.2 mm 2 mps 649 mmHg 87%
    04:00 +6°C° 0.1 mm 2 mps 649 mmHg 87%
    05:00 +6°C° 0.1 mm 2 mps 649 mmHg 88%
    06:00 +6°C° 0.1 mm 2 mps 649 mmHg 88%
    07:00 +6°C° 0 mm 2 mps 649 mmHg 86%
    08:00 +7°C° 0 mm 2 mps 650 mmHg 84%
    09:00 +7°C° 0 mm 2 mps 650 mmHg 82%
    10:00 +8°C° 0 mm 2 mps 650 mmHg 80%
    11:00 +8°C° 0 mm 2 mps 650 mmHg 77%
    12:00 +9°C° 0 mm 2 mps 650 mmHg 75%
    13:00 +9°C° 0 mm 2 mps 650 mmHg 74%
    14:00 +9°C° 0 mm 2 mps 650 mmHg 72%
    15:00 +10°C° 0 mm 1 mps 650 mmHg 70%
    16:00 +9°C° 0 mm 1 mps 650 mmHg 73%
    17:00 +7°C° 0 mm 1 mps 650 mmHg 77%
    18:00 +6°C° 0 mm 1 mps 650 mmHg 80%
    19:00 +6°C° 0 mm 1 mps 651 mmHg 79%
    20:00 +6°C° 0 mm 1 mps 651 mmHg 78%
    21:00 +5°C° 0 mm 1 mps 652 mmHg 77%
    22:00 +5°C° 0 mm 1 mps 652 mmHg 78%
    23:00 +5°C° 0 mm 1 mps 652 mmHg 78%

    24 November, Saturday

    Time Temperature Precipitation Wind Pressure Humidity
    00:00 +5°C° 0 mm 1 mps 653 mmHg 78%
    01:00 +5°C° 0 mm 1 mps 653 mmHg 79%
    02:00 +5°C° 0 mm 1 mps 653 mmHg 79%
    03:00 +5°C° 0 mm 1 mps 654 mmHg 80%
    04:00 +5°C° 0.1 mm 1 mps 654 mmHg 80%
    05:00 +5°C° 0.1 mm 1 mps 654 mmHg 80%
    06:00 +4°C° 0.1 mm 2 mps 655 mmHg 81%
    07:00 +5°C° 0 mm 2 mps 656 mmHg 78%
    08:00 +5°C° 0 mm 2 mps 656 mmHg 75%
    09:00 +6°C° 0 mm 2 mps 657 mmHg 73%
    10:00 +7°C° 0 mm 2 mps 657 mmHg 70%
    11:00 +8°C° 0 mm 1 mps 657 mmHg 67%
    12:00 +9°C° 0 mm 1 mps 658 mmHg 65%
    13:00 +9°C° 0.1 mm 1 mps 658 mmHg 65%
    14:00 +8°C° 0.1 mm 1 mps 658 mmHg 66%
    15:00 +8°C° 0.1 mm 1 mps 658 mmHg 66%
    16:00 +7°C° 0 mm 1 mps 658 mmHg 70%
    17:00 +6°C° 0 mm 1 mps 658 mmHg 73%
    18:00 +5°C° 0 mm 1 mps 658 mmHg 77%
    19:00 +5°C° 0 mm 1 mps 658 mmHg 77%
    20:00 +5°C° 0 mm 1 mps 658 mmHg 77%
    21:00 +4°C° 0 mm 1 mps 658 mmHg 77%
    22:00 +4°C° 0 mm 1 mps 658 mmHg 77%
    23:00 +4°C° 0 mm 1 mps 657 mmHg 76%

    25 November, Sunday

    Time Temperature Precipitation Wind Pressure Humidity
    00:00 +4°C° 0 mm 1 mps 657 mmHg 76%
    01:00 +3°C° 0 mm 1 mps 657 mmHg 77%
    02:00 +3°C° 0 mm 1 mps 656 mmHg 77%
    03:00 +2°C° 0 mm 0 mps 656 mmHg 77%
    04:00 +3°C° 0 mm 1 mps 655 mmHg 77%
    05:00 +2°C° 0 mm 1 mps 655 mmHg 77%
    06:00 +2°C° 0 mm 1 mps 655 mmHg 77%
    07:00 +4°C° 0 mm 1 mps 655 mmHg 73%
    08:00 +5°C° 0 mm 1 mps 655 mmHg 69%
    09:00 +6°C° 0 mm 1 mps 655 mmHg 64%
    10:00 +7°C° 0 mm 1 mps 654 mmHg 63%
    11:00 +8°C° 0 mm 1 mps 653 mmHg 62%
    12:00 +9°C° 0 mm 1 mps 653 mmHg 61%
    13:00 +9°C° 0 mm 1 mps 652 mmHg 62%
    14:00 +9°C° 0 mm 1 mps 652 mmHg 62%
    15:00 +9°C° 0 mm 1 mps 651 mmHg 62%
    16:00 +7°C° 0 mm 1 mps 651 mmHg 65%
    17:00 +6°C° 0 mm 1 mps 650 mmHg 69%
    18:00 +3°C° 0 mm 0 mps 650 mmHg 73%
    19:00 +3°C° 0 mm 0 mps 650 mmHg 73%
    20:00 +3°C° 0 mm 0 mps 650 mmHg 72%
    21:00 +3°C° 0 mm 0 mps 650 mmHg 72%
    22:00 +3°C° 0 mm 0 mps 650 mmHg 71%
    23:00 +3°C° 0 mm 1 mps 649 mmHg 71%

    26 November, Monday

    Time Temperature Precipitation Wind Pressure Humidity
    00:00 +3°C° 0 mm 1 mps 649 mmHg 70%
    01:00 +3°C° 0 mm 1 mps 649 mmHg 70%
    02:00 +3°C° 0 mm 1 mps 649 mmHg 69%
    03:00 +3°C° 0 mm 1 mps 649 mmHg 69%
    04:00 +3°C° 0 mm 1 mps 649 mmHg 69%
    05:00 +2°C° 0 mm 1 mps 649 mmHg 69%
    06:00 +2°C° 0 mm 1 mps 649 mmHg 69%
    07:00 +4°C° 0 mm 1 mps 649 mmHg 67%
    08:00 +5°C° 0 mm 1 mps 650 mmHg 64%
    09:00 +6°C° 0 mm 1 mps 650 mmHg 62%
    10:00 +7°C° 0 mm 1 mps 650 mmHg 62%
    11:00 +7°C° 0 mm 2 mps 650 mmHg 61%
    12:00 +7°C° 0 mm 2 mps 650 mmHg 60%
    13:00 +7°C° 0 mm 2 mps 650 mmHg 61%
    14:00 +7°C° 0 mm 2 mps 650 mmHg 61%
    15:00 +7°C° 0 mm 2 mps 649 mmHg 62%
    16:00 +6°C° 0 mm 2 mps 649 mmHg 66%
    17:00 +5°C° 0 mm 1 mps 649 mmHg 70%
    18:00 +4°C° 0 mm 1 mps 650 mmHg 75%
    19:00 +4°C° 0 mm 1 mps 650 mmHg 75%
    20:00 +4°C° 0 mm 1 mps 650 mmHg 76%
    21:00 +4°C° 0 mm 1 mps 650 mmHg 76%
    22:00 +3°C° 0 mm 2 mps 651 mmHg 77%
    23:00 +2°C° 0 mm 2 mps 651 mmHg 77%
    Show more